User: anonymous   Login
Location: Baix
(44.7118°N, 4.7648°E)
Time: 18:43:14
(UTC+00:00)
Language:

Cosmos 2228 - Orbit

View from above orbital plane
View from above orbital plane
View from above satellite
View from above satellite

Ground track
Ground track

The orbit data is extracted from the following two-line orbital elements,

1 22286U 92094A   20303.92114158 +.00000265 +00000-0 +25916-4 0  9993
2 22286 082.5169 292.9843 0021060 359.0189 001.0983 14.88180308484440
Epoch (UTC): 29 October 2020 22:06:26
Eccentricity: 0.0021060
inclination: 82.5169°
perigee height: 589 km
apogee height: 618 km
right ascension of ascending node: 292.9843°
argument of perigee: 359.0189°
revolutions per day: 14.88180308
mean anomaly at epoch: 1.0983°
orbit number at epoch: 48444

The dashed part of the orbit path shows where the satellite is in the earth's shadow,  

DLR